sat.trackr.live / text

‹ back to catalog

STARLINK-3517

NORAD 51735 · 2022-016X

PAYLOAD ACTIVE UNKNOWN

§ Identity

Operator
Country
US
Launch date
2022-02-21
Launch site
AFETR
Launch vehicle
Mass (kg)
RCS (m²)

Purposes: comms

External: N2YO · Heavens-Above · Gunter

§ Orbital elements

Epoch: 2026-05-24T20:03:13.572000Z

Period
95.44 min
Inclination
53.2125°
Eccentricity
0.0001444
Mean motion
15.08810741 rev/d
Perigee alt
538.8 km
Apogee alt
540.8 km
Semi-major
6,918.0 km
B*
3.5745e-4
RAAN
337.2916°
Arg perigee
95.2502°
Mean anomaly
264.8655°
Rev number
23,506

§ Raw data

STARLINK-35171 51735U 22016X   26144.83557375  .00005401  00000+0  35745-3 0  99982 51735  53.2125 337.2916 0001444  95.2502 264.8655 15.08810741235065

JSON: /api/v1/satellites/51735 · /tle

For live sub-satellite position, see the globe view (requires WebGL).

§ Visibility from observer

Set your observer location to see the next 7 days of passes ≥ 10°. The values pass through the URL so the page stays shareable.

No JS? Fill the form by hand. The geolocation button needs JavaScript.